Weather History for KMCD - December, 2012

Change the Weather History Date:

Sunday, December 23, 2012

  Actual Average Record
Temperature  
Mean Temperature 25 °F -  
Max Temperature 28 °F 27 °F 44 °F (2007)
Min Temperature 22 °F 17 °F 1 °F (1989)
Degree Days  
Heating Degree Days 40    
Moisture  
Dew Point 19 °F    
Average Humidity 77    
Maximum Humidity 87    
Minimum Humidity 68    
Precipitation  
Precipitation 0.00 in - - ()
Sea Level Pressure  
Sea Level Pressure 29.89 in    
Wind  
Wind Speed 12 mph (WNW)    
Max Wind Speed 18 mph    
Max Gust Speed 28 mph    
Visibility 10 miles    
Events Snow    
Averages and records for this station are not official NWS values.
T = Trace of Precipitation, MM = Missing Value Source: NWS Daily Summary

Daily Weather History Graph

Daily Weather History Graph

Search for Another Location

Airport or City:

Trip Planner

Search our weather history database for the weather conditions in past years. The results will help you decide how hot, cold, wet, or windy it might be!

Date:

Astronomy

Dec. 23, 2012 Rise Set
Actual Time 8:18 AM EST 4:57 PM EST
Civil Twilight 7:43 AM EST 5:32 PM EST
Nautical Twilight 7:05 AM EST 6:10 PM EST
Astronomical Twilight 6:29 AM EST 6:46 PM EST
Moon 1:54 PM EST (12/23) 3:52 AM EST (12/23)
Length of Visible Light 9h 48m
Length of Day
8h 39m
Waxing Gibbous, 81% of the Moon is Illuminated
Dec 23
Waxing Gibbous
Dec 28
Full
Jan 4
Last Quarter
Jan 11
New
Jan 18
First Quarter

Hourly Weather History & Observations

Time (EST) Temp. Windchill Dew Point Humidity Pressure Visibility Wind Dir Wind Speed Gust Speed Precip Events Conditions
12:16 AM 25.9 °F 18.2 °F 21.7 °F 84% 29.80 in 10.0 mi WNW 6.9 mph - N/A   Clear
12:35 AM 25.5 °F 16.2 °F 21.6 °F 85% 29.81 in 10.0 mi WNW 9.2 mph - N/A   Clear
12:55 AM 25.7 °F 15.7 °F 21.7 °F 85% 29.80 in 10.0 mi WNW 10.4 mph 16.1 mph N/A   Clear
1:16 AM 25.5 °F 15.5 °F 21.0 °F 83% 29.81 in 10.0 mi WNW 10.4 mph 16.1 mph N/A   Scattered Clouds
1:35 AM 25.5 °F 14.9 °F 19.8 °F 79% 29.80 in 10.0 mi WNW 11.5 mph 17.3 mph N/A   Scattered Clouds
1:55 AM 25.3 °F 13.6 °F 19.0 °F 77% 29.81 in 10.0 mi West 13.8 mph 19.6 mph N/A   Scattered Clouds
2:16 AM 25.5 °F 15.5 °F 19.2 °F 77% 29.80 in 10.0 mi West 10.4 mph 17.3 mph N/A   Scattered Clouds
2:35 AM 26.4 °F 16.0 °F 20.3 °F 78% 29.80 in 10.0 mi West 11.5 mph - N/A   Mostly Cloudy
2:55 AM 26.8 °F 18.5 °F 21.7 °F 81% 29.80 in 10.0 mi West 8.1 mph - N/A   Overcast
3:16 AM 27.7 °F 19.6 °F 22.6 °F 81% 29.79 in 10.0 mi West 8.1 mph - N/A   Overcast
3:35 AM 27.5 °F 16.3 °F 23.5 °F 85% 29.79 in 10.0 mi West 13.8 mph 19.6 mph N/A   Overcast
3:56 AM 28.0 °F 17.0 °F 23.7 °F 84% 29.79 in 10.0 mi West 13.8 mph 17.3 mph N/A   Overcast
4:16 AM 28.0 °F 18.6 °F 23.9 °F 84% 29.78 in 10.0 mi WNW 10.4 mph - N/A   Overcast
4:35 AM 27.5 °F 16.3 °F 23.5 °F 85% 29.79 in 10.0 mi NW 13.8 mph 21.9 mph N/A   Overcast
4:56 AM 27.0 °F 14.7 °F 23.5 °F 87% 29.80 in 10.0 mi NW 16.1 mph 24.2 mph N/A   Overcast
5:16 AM 27.0 °F 15.6 °F 23.4 °F 86% 29.80 in 10.0 mi NW 13.8 mph 21.9 mph N/A   Overcast
5:35 AM 26.8 °F 14.9 °F 23.0 °F 86% 29.81 in 10.0 mi NW 15.0 mph 21.9 mph N/A   Overcast
5:56 AM 26.1 °F 16.2 °F 22.1 °F 85% 29.82 in 10.0 mi NW 10.4 mph 20.7 mph N/A   Mostly Cloudy
6:15 AM 26.6 °F 14.3 °F 21.7 °F 82% 29.82 in 10.0 mi NNW 16.1 mph 20.7 mph N/A   Overcast
6:35 AM 26.4 °F 15.5 °F 21.7 °F 82% 29.83 in 10.0 mi NW 12.7 mph 21.9 mph N/A   Overcast
6:56 AM 26.2 °F 13.4 °F 20.8 °F 80% 29.84 in 10.0 mi NNW 17.3 mph 24.2 mph N/A   Overcast
7:15 AM 25.5 °F 13.8 °F 19.9 °F 79% 29.86 in 10.0 mi NW 13.8 mph 26.5 mph N/A   Overcast
7:35 AM 25.0 °F 12.6 °F 19.6 °F 80% 29.86 in 10.0 mi NW 15.0 mph 24.2 mph N/A   Overcast
7:56 AM 24.8 °F 11.1 °F 18.3 °F 76% 29.87 in 10.0 mi NW 18.4 mph 27.6 mph N/A   Overcast
8:15 AM 24.6 °F 12.7 °F 17.6 °F 75% 29.87 in 10.0 mi NW 13.8 mph 25.3 mph N/A   Overcast
8:35 AM 24.4 °F 13.0 °F 17.8 °F 76% 29.87 in 10.0 mi NW 12.7 mph 23.0 mph N/A   Overcast
8:55 AM 23.9 °F 10.3 °F 17.8 °F 77% 29.88 in 7.0 mi NW 17.3 mph 24.2 mph N/A Snow Light Snow
9:15 AM 23.9 °F 11.2 °F 17.2 °F 76% 29.89 in 10.0 mi WNW 15.0 mph 23.0 mph N/A   Overcast
9:36 AM 23.5 °F 10.3 °F 16.7 °F 75% 29.90 in 10.0 mi NW 16.1 mph 25.3 mph N/A   Overcast
9:55 AM 23.0 °F 11.1 °F 16.5 °F 76% 29.90 in 7.0 mi NW 12.7 mph 27.6 mph N/A   Overcast
10:15 AM 23.0 °F 10.6 °F 14.9 °F 71% 29.90 in 10.0 mi NNW 13.8 mph 24.2 mph N/A   Overcast
10:36 AM 23.2 °F 12.6 °F 14.9 °F 71% 29.90 in 10.0 mi NW 10.4 mph 16.1 mph N/A   Overcast
10:55 AM 23.4 °F 12.2 °F 15.8 °F 73% 29.91 in 10.0 mi NW 11.5 mph 18.4 mph N/A   Overcast
11:15 AM 23.2 °F 14.1 °F 16.3 °F 75% 29.90 in 10.0 mi WNW 8.1 mph - N/A Snow Light Snow
11:36 AM 22.8 °F 12.2 °F 16.2 °F 76% 29.90 in 5.0 mi WNW 10.4 mph 16.1 mph N/A Snow Light Snow
11:55 AM 23.0 °F 13.1 °F 16.5 °F 76% 29.89 in 5.0 mi WNW 9.2 mph - N/A Snow Light Snow
12:15 PM 23.0 °F 11.7 °F 16.5 °F 76% 29.89 in 7.0 mi West 11.5 mph - N/A Snow Light Snow
12:36 PM 23.5 °F 13.0 °F 16.7 °F 75% 29.89 in 10.0 mi WNW 10.4 mph 17.3 mph N/A Snow Light Snow
12:55 PM 23.9 °F 11.7 °F 17.4 °F 76% 29.89 in 7.0 mi WNW 13.8 mph 18.4 mph N/A Snow Light Snow
1:15 PM 24.6 °F 12.7 °F 17.6 °F 75% 29.89 in 10.0 mi WNW 13.8 mph 21.9 mph N/A Snow Light Snow
1:36 PM 24.8 °F 13.4 °F 16.5 °F 71% 29.89 in 10.0 mi WNW 12.7 mph 20.7 mph N/A Snow Light Snow
1:55 PM 24.6 °F 12.7 °F 17.6 °F 75% 29.89 in 7.0 mi West 13.8 mph 21.9 mph N/A Snow Light Snow
2:15 PM 24.4 °F 12.4 °F 16.0 °F 70% 29.90 in 10.0 mi WNW 13.8 mph 21.9 mph N/A   Overcast
2:36 PM 24.3 °F 12.7 °F 15.1 °F 68% 29.90 in 10.0 mi WNW 12.7 mph 24.2 mph N/A   Overcast
2:55 PM 24.1 °F 12.5 °F 16.0 °F 71% 29.91 in 10.0 mi WNW 12.7 mph 19.6 mph N/A   Overcast
3:15 PM 23.9 °F 11.7 °F 16.5 °F 73% 29.91 in 7.0 mi WNW 13.8 mph 21.9 mph N/A Snow Light Snow
3:35 PM 23.9 °F 12.3 °F 16.0 °F 72% 29.92 in 10.0 mi West 12.7 mph 19.6 mph N/A   Overcast
3:55 PM 23.9 °F 11.7 °F 16.3 °F 73% 29.92 in 10.0 mi WNW 13.8 mph - N/A   Overcast
4:16 PM 23.7 °F 12.1 °F 16.5 °F 74% 29.93 in 10.0 mi WNW 12.7 mph 16.1 mph N/A   Overcast
4:35 PM 23.7 °F 12.6 °F 16.5 °F 74% 29.93 in 10.0 mi West 11.5 mph 17.3 mph N/A Snow Light Snow
4:55 PM 23.7 °F 12.1 °F 16.7 °F 75% 29.93 in 10.0 mi WNW 12.7 mph 17.3 mph N/A   Overcast
5:16 PM 23.7 °F 12.6 °F 17.1 °F 76% 29.94 in 10.0 mi WNW 11.5 mph 18.4 mph N/A   Overcast
5:35 PM 23.9 °F 11.2 °F 17.6 °F 77% 29.94 in 10.0 mi WNW 15.0 mph 20.7 mph N/A   Overcast
5:55 PM 23.9 °F 12.9 °F 17.2 °F 76% 29.95 in 10.0 mi WNW 11.5 mph 19.6 mph N/A   Overcast
6:16 PM 24.3 °F 11.7 °F 17.4 °F 75% 29.95 in 10.0 mi WNW 15.0 mph - N/A   Overcast
6:35 PM 24.3 °F 12.7 °F 17.4 °F 75% 29.96 in 10.0 mi West 12.7 mph 18.4 mph N/A   Overcast
6:55 PM 24.4 °F 13.5 °F 17.4 °F 75% 29.96 in 10.0 mi WNW 11.5 mph 19.6 mph N/A   Overcast
7:16 PM 24.8 °F 14.6 °F 17.8 °F 75% 29.95 in 10.0 mi West 10.4 mph 18.4 mph N/A   Overcast
7:35 PM 25.2 °F 13.9 °F 18.5 °F 76% 29.96 in 10.0 mi West 12.7 mph 19.6 mph N/A   Overcast
7:55 PM 25.3 °F 12.6 °F 18.3 °F 75% 29.96 in 10.0 mi WNW 16.1 mph 27.6 mph N/A   Overcast
8:16 PM 25.3 °F 12.2 °F 17.6 °F 72% 29.97 in 10.0 mi WNW 17.3 mph 23.0 mph N/A   Overcast
8:35 PM 25.3 °F 14.1 °F 18.0 °F 74% 29.97 in 10.0 mi West 12.7 mph 19.6 mph N/A   Overcast
8:55 PM 25.3 °F 13.1 °F 18.7 °F 76% 29.97 in 10.0 mi WNW 15.0 mph 19.6 mph N/A   Overcast
9:16 PM 25.5 °F 14.3 °F 19.0 °F 76% 29.97 in 10.0 mi West 12.7 mph 18.4 mph N/A   Overcast
9:35 PM 25.5 °F 14.3 °F 19.4 °F 78% 29.97 in 10.0 mi WNW 12.7 mph 18.4 mph N/A   Overcast
9:56 PM 25.5 °F 13.3 °F 19.8 °F 79% 29.97 in 10.0 mi WNW 15.0 mph 20.7 mph N/A   Overcast
10:15 PM 25.5 °F 14.3 °F 19.8 °F 79% 29.97 in 10.0 mi WNW 12.7 mph 19.6 mph N/A   Overcast
10:35 PM 25.5 °F 14.3 °F 19.4 °F 78% 29.97 in 10.0 mi West 12.7 mph 18.4 mph N/A   Overcast
10:56 PM 25.5 °F 13.3 °F 19.4 °F 78% 29.96 in 10.0 mi West 15.0 mph 20.7 mph N/A   Overcast
11:15 PM 25.3 °F 13.6 °F 18.9 °F 76% 29.96 in 10.0 mi WNW 13.8 mph 19.6 mph N/A   Overcast
11:35 PM 25.3 °F 14.1 °F 19.4 °F 78% 29.97 in 10.0 mi West 12.7 mph 18.4 mph N/A   Overcast
11:56 PM 25.2 °F 15.7 °F 18.5 °F 76% 29.96 in 10.0 mi West 9.2 mph - N/A   Overcast